, TX

(GMT )
Midland

Weather History for KMAF - September, 2013

Change the Weather History Date:

Friday, September 13, 2013

  Actual Average Record
Temperature  
Mean Temperature 79 °F 75 °F  
Max Temperature 92 °F 88 °F 102 °F (1930)
Min Temperature 65 °F 63 °F 49 °F (1959)
Degree Days  
Heating Degree Days 0 0  
Month to date heating degree days 0 0  
Since 1 July heating degree days 0 0  
Cooling Degree Days 14 10  
Month to date cooling degree days 218 158  
Year to date cooling degree days 2393 2042  
Growing Degree Days 28 (Base 50)    
Moisture  
Dew Point 55 °F    
Average Humidity 46    
Maximum Humidity 68    
Minimum Humidity 23    
Precipitation  
Precipitation 0.00 in 0.07 in 0.85 in (1933)
Month to date precipitation T 0.88  
Year to date precipitation 4.57 10.60  
Sea Level Pressure  
Sea Level Pressure 29.88 in    
Wind  
Wind Speed 9 mph (SE)    
Max Wind Speed 24 mph    
Max Gust Speed 31 mph    
Visibility 10 miles    
Events      
T = Trace of Precipitation, MM = Missing Value Source: NWS Daily Summary

Daily Weather History Graph

Daily Weather History Graph

Search for Another Location

Airport or City:

Trip Planner

Search our weather history database for the weather conditions in past years. The results will help you decide how hot, cold, wet, or windy it might be!

Date:

Astronomy

Sep. 13, 2013 Rise Set
Actual Time 7:31 AM CDT 7:56 PM CDT
Civil Twilight 7:07 AM CDT 8:21 PM CDT
Nautical Twilight 6:38 AM CDT 8:50 PM CDT
Astronomical Twilight 6:09 AM CDT 9:19 PM CDT
Moon 3:33 PM CDT (9/13) 1:18 AM CDT (9/13)
Length of Visible Light 13h 14m
Length of Day
12h 25m
First Quarter, 61% of the Moon is Illuminated
Sep 13
First Quarter
Sep 19
Full
Sep 26
Last Quarter
Oct 4
New
Oct 11
First Quarter

Hourly Weather History & Observations

Time (CDT) Temp. Heat Index Dew Point Humidity Pressure Visibility Wind Dir Wind Speed Gust Speed Precip Events Conditions
12:53 AM 73.0 °F - 53.1 °F 49% 29.94 in 10.0 mi SE 6.9 mph - N/A   Clear
1:53 AM 72.0 °F - 53.1 °F 51% 29.93 in 10.0 mi ESE 8.1 mph - N/A   Clear
2:53 AM 70.0 °F - 53.1 °F 55% 29.93 in 10.0 mi SSE 4.6 mph - N/A   Clear
3:53 AM 68.0 °F - 53.1 °F 59% 29.92 in 10.0 mi SE 4.6 mph - N/A   Clear
4:53 AM 68.0 °F - 54.0 °F 61% 29.92 in 10.0 mi SE 4.6 mph - N/A   Clear
5:53 AM 66.9 °F - 54.0 °F 63% 29.93 in 10.0 mi SSE 4.6 mph - N/A   Clear
6:53 AM 66.9 °F - 55.0 °F 66% 29.93 in 10.0 mi Calm Calm - N/A   Clear
7:53 AM 66.0 °F - 55.0 °F 68% 29.94 in 10.0 mi Calm Calm - N/A   Clear
8:53 AM 72.0 °F - 57.9 °F 61% 29.94 in 10.0 mi Calm Calm - N/A   Clear
9:53 AM 75.9 °F - 61.0 °F 60% 29.94 in 10.0 mi South 5.8 mph - N/A   Clear
10:53 AM 81.0 °F 81.6 °F 60.1 °F 49% 29.94 in 10.0 mi SSE 13.8 mph 18.4 mph N/A   Clear
11:53 AM 84.0 °F 83.8 °F 59.0 °F 43% 29.93 in 10.0 mi SSE 12.7 mph - N/A   Partly Cloudy
12:53 PM 84.9 °F 84.2 °F 57.9 °F 40% 29.91 in 10.0 mi ESE 13.8 mph - N/A   Scattered Clouds
1:53 PM 88.0 °F 86.1 °F 55.0 °F 32% 29.88 in 10.0 mi SE 17.3 mph 24.2 mph N/A   Scattered Clouds
2:53 PM 90.0 °F - 51.1 °F 26% 29.85 in 10.0 mi ESE 12.7 mph 24.2 mph N/A   Mostly Cloudy
3:53 PM 90.0 °F - 50.0 °F 25% 29.82 in 10.0 mi East 12.7 mph 23.0 mph N/A   Scattered Clouds
4:53 PM 89.1 °F - 46.9 °F 23% 29.79 in 10.0 mi East 11.5 mph 25.3 mph N/A   Clear
5:53 PM 90.0 °F - 52.0 °F 27% 29.78 in 10.0 mi SE 16.1 mph 25.3 mph N/A   Clear
6:53 PM 87.1 °F 85.1 °F 54.0 °F 32% 29.79 in 10.0 mi ESE 17.3 mph - N/A   Clear
7:53 PM 84.9 °F 83.3 °F 54.0 °F 34% 29.81 in 10.0 mi SE 16.1 mph - N/A   Clear
8:53 PM 82.0 °F 81.4 °F 55.0 °F 39% 29.82 in 10.0 mi SE 6.9 mph - N/A   Overcast
9:53 PM 82.0 °F 81.3 °F 54.0 °F 38% 29.83 in 10.0 mi South 11.5 mph - N/A   Overcast
10:53 PM 81.0 °F 80.8 °F 55.9 °F 42% 29.84 in 10.0 mi South 8.1 mph - N/A   Overcast
11:53 PM 78.1 °F - 55.0 °F 45% 29.85 in 10.0 mi SE 4.6 mph - N/A   Mostly Cloudy